This is the latest recevied weather packets stored in our database for station/object SP1BMW-13. If no packets are shown the sender has not sent any weather packets the latest 10 day(s).
| Time | Temp. | Humidity | Pressure | Rain* | Wind** | Luminosity | Snow |
|---|---|---|---|---|---|---|---|
| 1788107078 | 25° C | 50% | 1008.7 hPa | 0 mm | 1.34 m/s, 266° | 60 W/m² | - |
| 1788107018 | 25° C | 50% | 1008.6 hPa | 0 mm | 0.45 m/s, 43° | 53 W/m² | - |
| 1788106958 | 25° C | 50% | 1008.6 hPa | 0 mm | 1.34 m/s, 295° | 75 W/m² | - |
| 1788106898 | 25° C | 50% | 1008.7 hPa | 0 mm | 2.24 m/s, 257° | 93 W/m² | - |
| 1788106838 | 25° C | 50% | 1008.7 hPa | 0 mm | 2.24 m/s, 265° | 58 W/m² | - |
| 1788106778 | 25.56° C | 50% | 1008.5 hPa | 0 mm | 0.89 m/s, 172° | 63 W/m² | - |
| 1788106718 | 25.56° C | 50% | 1008.7 hPa | 0 mm | 1.79 m/s, 256° | 54 W/m² | - |
| 1788106658 | 25.56° C | 50% | 1008.7 hPa | 0 mm | 0.89 m/s, 312° | 85 W/m² | - |
| 1788106598 | 25.56° C | 49% | 1008.6 hPa | 0 mm | 1.79 m/s, 277° | 123 W/m² | - |
| 1788106541 | 25.56° C | 49% | 1008.6 hPa | 0 mm | 0.45 m/s, 349° | 127 W/m² | - |
| 1788106478 | 25.56° C | 49% | 1008.6 hPa | 0 mm | 0.89 m/s, 249° | 128 W/m² | - |
| 1788106418 | 25.56° C | 49% | 1008.7 hPa | 0 mm | 0.89 m/s, 242° | 132 W/m² | - |
| 1788106358 | 25.56° C | 49% | 1008.5 hPa | 0 mm | 1.34 m/s, 236° | 134 W/m² | - |
| 1788106301 | 25.56° C | 49% | 1008.5 hPa | 0 mm | 1.79 m/s, 246° | 136 W/m² | - |
| 1788106238 | 25.56° C | 49% | 1008.6 hPa | 0 mm | 0.89 m/s, 197° | 139 W/m² | - |
| 1788106178 | 25.56° C | 49% | 1008.6 hPa | 0 mm | 1.34 m/s, 211° | 141 W/m² | - |
| 1788106121 | 25.56° C | 49% | 1008.5 hPa | 0 mm | 1.79 m/s, 216° | 144 W/m² | - |
| 1788106058 | 25.56° C | 48% | 1008.6 hPa | 0 mm | 3.13 m/s, 302° | 147 W/m² | - |
| 1788105998 | 25.56° C | 49% | 1008.4 hPa | 0 mm | 1.79 m/s, 304° | 148 W/m² | - |
| 1788105938 | 25.56° C | 49% | 1008.3 hPa | 0 mm | 2.24 m/s, 292° | 151 W/m² | - |
| 1788105880 | 25.56° C | 49% | 1008.5 hPa | 0 mm | 1.34 m/s, 265° | 154 W/m² | - |
| 1788105818 | 25.56° C | 50% | 1008.5 hPa | 0 mm | 0.89 m/s, 228° | 156 W/m² | - |
| 1788105758 | 25.56° C | 49% | 1008.6 hPa | 0 mm | 2.24 m/s, 260° | 158 W/m² | - |
| 1788105698 | 25.56° C | 49% | 1008.5 hPa | 0 mm | 0.45 m/s, 255° | 145 W/m² | - |
| 1788105638 | 25.56° C | 49% | 1008.5 hPa | 0 mm | 0.89 m/s, 219° | 157 W/m² | - |
* Rain latest hour (hover to see other rain measurements)
** Current wind speed in m/s (hover to see current wind gust speed)